CET,Max TemperatureF,Mean TemperatureF,Min TemperatureF,Max Dew PointF,MeanDew PointF,Min DewpointF,Max Humidity, Mean Humidity, Min Humidity, Max Sea Level PressureIn, Mean Sea Level PressureIn, Min Sea Level PressureIn, Max VisibilityMiles, Mean VisibilityMiles, Min VisibilityMiles, Max Wind SpeedMPH, Mean Wind SpeedMPH, Max Gust SpeedMPH,PrecipitationIn, CloudCover, Events, WindDirDegrees
2013-11-1,75,64,53,63,58,54,100,86,57,30.18,30.12,30.09,6,6,6,18,3,,0.00,1,,99
2013-11-2,71,64,57,66,61,55,100,90,73,30.12,30.06,30.01,6,6,4,15,4,,0.00,3,Rain,156
2013-11-3,69,64,60,66,63,61,100,89,73,30.06,29.99,29.92,6,6,6,17,8,,0.00,4,Rain,167
2013-11-4,69,66,62,64,60,55,100,84,60,29.95,29.75,29.47,6,6,4,17,8,31,0.00,3,Rain-Thunderstorm,182
2013-11-5,64,58,51,61,57,52,100,91,64,29.50,29.42,29.36,6,5,2,14,6,20,0.00,3,Rain-Thunderstorm,336
2013-11-6,68,59,50,57,54,48,100,87,64,29.89,29.70,29.50,6,6,6,9,3,,0.00,3,,9
2013-11-7,69,58,48,64,58,46,100,91,78,30.09,30.01,29.89,6,6,6,15,4,25,0.00,3,,152
2013-11-8,69,64,59,64,61,57,100,89,78,30.09,30.07,30.06,6,6,6,14,7,,0.00,3,,162
2013-11-9,69,64,60,66,61,57,100,90,78,30.04,29.99,29.95,6,6,6,16,9,,0.00,2,,170
2013-11-10,64,57,50,61,55,50,100,87,68,29.98,29.78,29.47,6,6,2,20,7,33,0.00,4,Rain-Thunderstorm,191
2013-11-11,55,52,48,50,48,43,100,88,71,29.68,29.48,29.39,6,6,4,18,9,33,0.00,3,Rain-Thunderstorm,8
2013-11-12,57,52,48,55,52,46,100,95,82,29.95,29.84,29.68,6,6,6,9,4,,0.00,3,Rain,42
2013-11-13,64,57,50,59,53,48,100,92,77,29.98,29.92,29.86,6,6,6,7,3,,0.00,3,Rain,38
2013-11-14,68,60,51,59,55,50,100,89,68,29.98,29.93,29.86,6,6,6,8,4,,0.00,4,,66
2013-11-15,60,56,51,59,55,52,100,96,88,29.98,29.90,29.80,6,5,3,13,6,26,0.00,4,Rain-Thunderstorm,75
2013-11-16,60,54,48,57,52,48,100,90,77,30.06,30.03,29.98,6,6,2,7,2,,0.00,4,,39
2013-11-17,66,60,53,57,53,50,94,83,64,30.12,30.09,30.06,6,6,6,10,5,17,0.00,3,Rain,105
2013-11-18,66,57,48,54,51,46,100,80,59,30.09,29.89,29.68,6,6,6,21,3,36,0.00,5,Rain-Thunderstorm,97
2013-11-19,62,56,51,59,53,50,100,86,68,29.74,29.58,29.42,6,5,2,20,11,25,0.00,4,Rain-Thunderstorm,137
2013-11-20,60,53,46,55,50,45,100,89,67,29.74,29.60,29.27,6,6,2,21,9,41,0.00,3,Rain-Thunderstorm,187
2013-11-21,57,52,48,50,46,41,100,82,62,29.68,29.59,29.50,6,6,5,17,7,36,0.00,4,Rain-Thunderstorm,183
2013-11-22,51,48,46,50,46,41,100,92,71,29.50,29.46,29.39,6,6,2,14,5,,0.00,6,Rain,119
2013-11-23,48,46,44,46,44,41,100,95,87,29.53,29.45,29.39,6,5,2,17,6,21,0.00,6,Rain-Thunderstorm,135
2013-11-24,51,46,41,46,43,41,100,89,76,29.68,29.58,29.50,6,6,6,14,6,,0.00,3,,46
2013-11-25,57,47,37,45,36,23,100,77,49,29.86,29.76,29.68,6,6,6,18,7,32,0.00,3,,19
2013-11-26,46,40,35,32,29,27,87,68,53,29.98,29.92,29.86,6,6,6,23,14,43,0.00,2,,359
2013-11-27,44,38,32,37,33,30,93,84,70,30.24,30.10,29.98,6,6,6,8,5,,0.00,3,,35
2013-11-28,46,38,30,41,35,30,100,88,66,30.30,30.24,30.21,6,6,4,12,5,,0.00,3,Rain,43
2013-11-29,53,44,35,41,38,36,100,85,58,30.24,30.18,30.09,6,6,6,7,4,,0.00,2,,31
2013-11-30,55,44,33,43,38,32,100,84,58,30.09,29.90,29.83,6,6,5,5,2,,0.00,2,,32